sat.trackr.live / text

‹ back to catalog

STARLINK-34561

NORAD 65081 · 2025-167D

PAYLOAD ACTIVE UNKNOWN

§ Identity

Operator
Country
US
Launch date
2025-08-04
Launch site
AFETR
Launch vehicle
Mass (kg)
RCS (m²)

Purposes: comms

External: N2YO · Heavens-Above · Gunter

§ Orbital elements

Epoch: 2026-05-24T22:53:42.952704Z

Period
94.11 min
Inclination
53.1604°
Eccentricity
0.0001117
Mean motion
15.30204693 rev/d
Perigee alt
474.4 km
Apogee alt
476.0 km
Semi-major
6,853.3 km
B*
5.2955e-4
RAAN
29.8113°
Arg perigee
87.9600°
Mean anomaly
272.1529°
Rev number
4,644

§ Raw data

STARLINK-345611 65081U 25167D   26144.95396936  .00015359  00000+0  52955-3 0  99992 65081  53.1604  29.8113 0001117  87.9600 272.1529 15.30204693 46444

JSON: /api/v1/satellites/65081 · /tle

For live sub-satellite position, see the globe view (requires WebGL).

§ Visibility from observer

Set your observer location to see the next 7 days of passes ≥ 10°. The values pass through the URL so the page stays shareable.

No JS? Fill the form by hand. The geolocation button needs JavaScript.